Group_ship,Cruise,JD_GMT,Date_DDMMYYYY,TIME_HH:MM:SS,Lat_dec_degree,Long_dec_degree,xCO2eq_ppm,xCO2a_ppm,Pres_Equi_hPa,Pres_sealevel_hPa,EqTemp_C,SST(TSG)_C,Sal(TSG)_Permil,Water_flow_l/min,Gasflow_IR_ml/min,Temp_IR_C,Pres_IR_hPa,Ship_heading_true_degree,Ship_speed_knot,Wind_dir_rel_degree,Wind_speed_rel_m/s,fCO2W@SST_uatm,Qcflag_water,fCO2a_uatm,Qcflag_air,dfCO2_uatm,Fluoro_ug/l,Wind_speed_true_m/s,Wind_dir_true_degree,Air_temp_C,Oxygen
AOML_Explorer,Ex0519W,128.972,8052005,23:19:07,25.401,-80.016,373.79,-9,1016.52,1014.03,25.41,25.58,36.29,1.26,82.33,31.43,1016.52,186.1,19.1,313,10.81,364.44,2,-9,9,-9,0.11,12.3,62.64,23.37,-9
AOML_Explorer,Ex0519W,128.973,8052005,23:21:40,25.387,-80.018,373.32,-9,1016.44,1013.71,25.41,25.57,36.288,1.3,82.27,31.44,1016.44,185.9,19.2,298,11.84,363.74,2,-9,9,-9,0.11,13.82,59.83,23.38,-9
AOML_Explorer,Ex0519W,128.975,8052005,23:24:13,25.374,-80.02,373.04,-9,1016.37,1013.96,25.4,25.58,36.289,1.26,83.24,31.45,1016.37,186.4,19.2,308,12.35,363.65,2,-9,9,-9,0.11,13.17,60.51,23.3,-9
AOML_Explorer,Ex0519W,128.977,8052005,23:26:46,25.36,-80.021,372.81,-9,1016.49,1014.02,25.4,25.65,36.276,1.26,82.92,31.45,1016.49,186.1,19.1,307,10.81,364.51,2,-9,9,-9,0.11,12.64,55.85,23.31,-9
AOML_Explorer,Ex0519W,128.979,8052005,23:29:19,25.347,-80.023,372.66,-9,1016.48,1014.01,25.42,25.68,36.277,1.25,82.46,31.45,1016.48,186.3,19,302,12.35,364.54,2,-9,9,-9,0.11,13.52,61.08,23.32,-9
AOML_Explorer,Ex0519W,128.98,8052005,23:31:52,25.334,-80.025,372.51,-9,1016.6,1014.02,25.47,25.69,36.278,1.28,82.32,31.45,1016.6,185.8,19,307,10.81,363.85,2,-9,9,-9,0.11,12.29,54.14,23.28,-9
AOML_Explorer,Ex0519W,128.982,8052005,23:34:25,25.32,-80.027,372.2,-9,1016.58,1014.02,25.49,25.74,36.267,1.27,83.17,31.4,1016.58,186.3,18.9,307,10.29,363.79,2,-9,9,-9,0.11,11.33,55.01,23.29,-9
AOML_Explorer,Ex0519W,128.984,8052005,23:36:58,25.307,-80.028,370.64,-9,1016.53,1013.95,25.51,25.72,36.277,1.28,82.26,31.38,1016.53,186.6,18.9,306,12.35,361.67,2,-9,9,-9,0.1,13.3,60.45,23.38,-9
AOML_Explorer,Ex0519W,128.986,8052005,23:39:31,25.294,-80.03,370.53,-9,1016.54,1014,25.53,25.73,36.271,1.27,83.01,31.36,1016.54,186.7,18.8,298,9.78,361.56,2,-9,9,-9,0.11,12.79,51.81,23.31,-9
AOML_Explorer,Ex0519W,128.988,8052005,23:42:04,25.281,-80.032,370.4,-9,1016.41,1013.95,25.53,25.72,36.276,1.25,83.52,31.36,1016.41,186.2,18.7,306,11.32,361.17,2,-9,9,-9,0.03,12.78,53.88,23.31,-9
AOML_Explorer,Ex0519W,128.989,8052005,23:44:37,25.267,-80.034,370.29,-9,1016.44,1013.96,25.53,25.7,36.283,1.27,82.51,31.35,1016.44,186.8,18.7,300,10.29,360.91,2,-9,9,-9,0.04,12.66,59.8,23.33,-9
AOML_Explorer,Ex0519W,128.991,8052005,23:47:10,25.254,-80.035,370.04,-9,1016.53,1013.94,25.53,25.72,36.28,1.29,82.72,31.35,1016.53,186.4,18.6,305,10.29,360.92,2,-9,9,-9,0.03,12.65,56.96,23.34,-9
AOML_Explorer,Ex0519W,128.993,8052005,23:49:43,25.241,-80.037,370.03,-9,1016.5,1013.96,25.54,25.68,36.284,1.27,82.9,31.35,1016.5,185.7,18.5,296,9.26,360.27,2,-9,9,-9,0.12,12.65,49.54,23.26,-9
AOML_Explorer,Ex0519W,128.995,8052005,23:52:16,25.228,-80.039,370.11,-9,1016.48,1013.72,25.52,25.66,36.285,1.26,82.73,31.36,1016.48,185.8,18.5,298,11.84,360.41,2,-9,9,-9,0.11,14.12,59.41,23.3,-9
AOML_Explorer,Ex0519W,128.996,8052005,23:54:49,25.215,-80.04,370.11,-9,1016.57,1013.94,25.49,25.61,36.295,1.28,82.86,31.36,1016.57,185.1,18.5,297,9.78,360.04,2,-9,9,-9,0.11,12.9,54.29,23.34,-9
AOML_Explorer,Ex0519W,128.998,8052005,23:57:22,25.202,-80.042,370.37,-9,1016.66,1014.22,25.47,25.62,36.286,1.27,82.91,31.37,1016.66,185,18.5,304,11.32,360.79,2,-9,9,-9,0.11,12.4,57.85,23.37,-9
AOML_Explorer,Ex0519W,129,8052005,23:59:55,25.189,-80.043,370.39,-9,1016.71,1014.21,25.44,25.62,36.29,1.28,82.78,31.37,1016.71,184.5,18.6,306,10.81,361.24,2,-9,9,-9,0.11,12.53,56.24,23.36,-9
AOML_Explorer,Ex0519W,129.013,9052005,0:19:07,25.088,-80.054,370.62,-9,1016.73,1014.22,25.47,25.77,36.242,1.21,82.3,31.47,1016.73,184.7,19,307,11.32,363.04,2,-9,9,-9,0.1,11.93,57.76,23.49,-9
AOML_Explorer,Ex0519W,129.015,9052005,0:21:40,25.074,-80.055,370.97,-9,1016.6,1013.96,25.53,25.77,36.248,1.21,82.81,31.47,1016.6,184.9,19,300,13.38,362.46,2,-9,9,-9,0.1,14.25,55.42,23.46,-9
AOML_Explorer,Ex0519W,129.017,9052005,0:24:13,25.061,-80.057,371.29,-9,1016.6,1014,25.57,25.78,36.253,1.2,82.44,31.48,1016.6,184.4,19,308,12.87,362.45,2,-9,9,-9,0.12,13.9,66.55,23.45,-9
AOML_Explorer,Ex0519W,129.019,9052005,0:26:46,25.047,-80.058,371.52,-9,1016.63,1014.21,25.58,25.77,36.256,1.2,82.57,31.48,1016.63,185.1,18.9,305,11.32,362.29,2,-9,9,-9,0.1,12.37,57.79,23.44,-9
AOML_Explorer,Ex0519W,129.02,9052005,0:29:19,25.034,-80.059,371.62,-9,1016.71,1013.95,25.59,25.77,36.253,1.19,81.99,31.49,1016.71,184,19,300,12.35,362.31,2,-9,9,-9,0.11,14.22,56.34,23.5,-9
AOML_Explorer,Ex0519W,129.022,9052005,0:31:52,25.021,-80.06,371.55,-9,1016.62,1013.96,25.58,25.76,36.25,1.19,82.89,31.49,1016.62,184.6,18.9,305,12.87,362.34,2,-9,9,-9,0.11,13.09,60.94,23.54,-9
AOML_Explorer,Ex0519W,129.024,9052005,0:34:25,25.007,-80.062,371.67,-9,1016.57,1013.96,25.57,25.77,36.254,1.21,82.52,31.49,1016.57,183.6,19,296,11.84,362.66,2,-9,9,-9,0.1,14.14,58.03,23.43,-9
AOML_Explorer,Ex0519W,129.026,9052005,0:36:58,24.994,-80.063,371.7,-9,1016.54,1013.96,25.58,25.78,36.258,1.21,81.25,31.49,1016.54,183.9,19,301,13.38,362.58,2,-9,9,-9,0.1,14.4,63.94,23.55,-9
AOML_Explorer,Ex0519W,129.027,9052005,0:39:31,24.98,-80.064,371.54,-9,1016.65,1014.2,25.59,25.8,36.251,1.19,82.22,31.49,1016.65,182.9,19,308,12.87,362.73,2,-9,9,-9,0.1,13.03,60.33,23.51,-9
AOML_Explorer,Ex0519W,129.029,9052005,0:42:04,24.967,-80.065,371.48,-9,1016.69,1014.22,25.59,25.77,36.264,1.21,82.63,31.49,1016.69,183,19.1,298,13.9,362.22,2,-9,9,-9,0.1,13.74,65.01,23.55,-9
AOML_Explorer,Ex0519W,129.031,9052005,0:44:37,24.953,-80.065,371.19,-9,1016.86,1014.23,25.6,25.7,36.272,1.2,82.47,31.49,1016.86,182.8,19.2,308,12.87,360.9,2,-9,9,-9,0.1,13.11,60.83,23.45,-9
AOML_Explorer,Ex0519W,129.033,9052005,0:47:10,24.94,-80.066,371.07,-9,1016.59,1013.97,25.57,25.64,36.262,1.2,82.88,31.49,1016.59,182.6,19.2,299,14.41,360.23,2,-9,9,-9,0.1,15.01,60.79,23.52,-9
AOML_Explorer,Ex0519W,129.035,9052005,0:49:43,24.926,-80.067,371.03,-9,1016.7,1013.96,25.5,25.81,36.254,1.18,82.12,31.49,1016.7,182.1,19.1,299,12.87,363.55,2,-9,9,-9,0.09,14.46,56.2,23.51,-9
AOML_Explorer,Ex0519W,129.036,9052005,0:52:16,24.912,-80.067,371.15,-9,1016.53,1013.67,25.54,25.99,36.234,1.2,82.67,31.49,1016.53,181.7,19,295,13.38,365.44,2,-9,9,-9,0.09,15.45,61.02,23.58,-9
AOML_Explorer,Ex0519W,129.038,9052005,0:54:49,24.899,-80.068,370.7,-9,1016.46,1013.68,25.67,26.09,36.234,1.2,82.14,31.49,1016.46,182,18.8,290,13.38,364.44,2,-9,9,-9,0.1,15.43,53.07,23.57,-9
AOML_Explorer,Ex0519W,129.04,9052005,0:57:22,24.886,-80.068,370.12,-9,1016.57,1013.96,25.79,26.15,36.238,1.18,82.22,31.49,1016.57,181.2,18.7,295,12.87,363.03,2,-9,9,-9,0.09,14.42,54.49,23.64,-9
AOML_Explorer,Ex0519W,129.042,9052005,0:59:55,24.872,-80.069,369.73,-9,1016.62,1013.72,25.88,26.17,36.243,1.2,83.36,31.49,1016.62,181.6,18.6,293,13.38,361.64,2,-9,9,-9,0.09,15.23,57.13,23.58,-9
AOML_Explorer,Ex0519W,129.055,9052005,1:19:07,24.779,-80.101,370.55,-9,1016.54,1014,25.99,26.23,36.249,1.2,82.91,31.54,1016.54,195.6,18.4,277,9.26,361.73,2,-9,9,-9,0.1,12.65,59.54,23.72,-9
AOML_Explorer,Ex0519W,129.057,9052005,1:21:40,24.767,-80.105,370.91,-9,1016.48,1013.95,26.01,26.24,36.245,1.17,80.85,31.55,1016.48,200.2,18.7,286,10.29,361.93,2,-9,9,-9,0.09,14.34,63.49,23.61,-9
AOML_Explorer,Ex0519W,129.058,9052005,1:24:13,24.755,-80.111,371.09,-9,1016.55,1014.23,26.01,26.25,36.238,1.21,82.14,31.55,1016.55,209.4,18.7,293,8.75,362.19,2,-9,9,-9,0.09,11.41,71.01,23.66,-9
AOML_Explorer,Ex0519W,129.06,9052005,1:26:46,24.744,-80.119,371.13,-9,1016.62,1013.95,26.01,26.24,36.241,1.17,82.51,31.56,1016.62,214.8,18.9,279,10.29,362.15,2,-9,9,-9,0.09,14.65,74.92,23.72,-9
AOML_Explorer,Ex0519W,129.062,9052005,1:29:19,24.733,-80.128,371.17,-9,1016.58,1013.96,26.02,26.23,36.242,1.2,83.14,31.56,1016.58,220.2,19,283,8.24,362.01,2,-9,9,-9,0.1,14.3,76.51,23.64,-9
AOML_Explorer,Ex0519W,129.064,9052005,1:31:52,24.723,-80.138,371.03,-9,1016.61,1014.2,26.01,26.22,36.241,1.18,82.3,31.56,1016.61,227.2,18.5,280,7.21,361.84,2,-9,9,-9,0.11,12.59,79.9,23.64,-9
AOML_Explorer,Ex0519W,129.066,9052005,1:34:25,24.715,-80.149,370.99,-9,1016.74,1014.51,26.01,26.21,36.242,1.18,81.51,31.55,1016.74,232.4,18.4,294,5.66,361.79,2,-9,9,-9,0.09,11.39,80.25,23.62,-9
AOML_Explorer,Ex0519W,129.067,9052005,1:36:58,24.707,-80.161,370.89,-9,1016.72,1014.51,26,26.2,36.243,1.2,82.63,31.55,1016.72,232.7,18.5,283,5.15,361.64,2,-9,9,-9,0.09,11.42,72.14,23.6,-9
AOML_Explorer,Ex0519W,129.069,9052005,1:39:31,24.699,-80.172,370.81,-9,1016.72,1014.22,25.99,26.19,36.246,1.18,82.66,31.56,1016.72,232.3,18.4,291,6.18,361.52,2,-9,9,-9,0.09,11.16,84.33,23.67,-9
AOML_Explorer,Ex0519W,129.071,9052005,1:42:04,24.691,-80.183,370.74,-9,1016.69,1014.48,25.98,26.17,36.247,1.19,82.33,31.56,1016.69,232.4,18.4,301,5.15,361.42,2,-9,9,-9,0.09,10.25,78.31,23.6,-9
AOML_Explorer,Ex0519W,129.073,9052005,1:44:37,24.683,-80.194,370.77,-9,1016.64,1014.5,25.96,26.16,36.247,1.18,81.97,31.55,1016.64,232,18.4,297,4.12,361.42,2,-9,9,-9,0.09,9.91,71.95,23.57,-9
AOML_Explorer,Ex0519W,129.074,9052005,1:47:10,24.675,-80.206,370.79,-9,1016.64,1014.2,25.95,26.14,36.249,1.19,82.08,31.55,1016.64,232.2,18.4,282,4.63,361.36,2,-9,9,-9,0.09,10.27,75.45,23.68,-9
AOML_Explorer,Ex0519W,129.076,9052005,1:49:43,24.667,-80.217,370.75,-9,1016.64,1014.21,25.94,26.09,36.256,1.18,82.44,31.55,1016.64,231.8,18.5,288,4.63,360.82,2,-9,9,-9,0.11,10.95,78.34,23.66,-9
AOML_Explorer,Ex0519W,129.078,9052005,1:52:16,24.659,-80.228,370.84,-9,1016.71,1014.51,25.91,26.12,36.241,1.2,82.84,31.55,1016.71,231.3,18.4,289,4.63,361.8,2,-9,9,-9,0.1,9.62,77.64,23.68,-9
AOML_Explorer,Ex0519W,129.08,9052005,1:54:49,24.651,-80.24,370.76,-9,1016.71,1014.22,25.89,26.11,36.236,1.17,82.3,31.55,1016.71,231.4,18.6,287,7.21,361.86,2,-9,9,-9,0.11,12.44,89.64,23.74,-9
AOML_Explorer,Ex0519W,129.082,9052005,1:57:22,24.643,-80.251,370.74,-9,1016.76,1014.51,25.91,26.11,36.22,1.17,82.62,31.55,1016.76,231.5,18.6,283,6.18,361.54,2,-9,9,-9,0.11,10.6,81.03,23.8,-9
AOML_Explorer,Ex0519W,129.083,9052005,1:59:55,24.635,-80.262,370.37,-9,1016.69,1014.47,25.9,26.11,36.218,1.17,81.77,31.55,1016.69,231.8,18.5,265,5.66,361.32,2,-9,9,-9,0.13,12.19,71.43,23.66,-9
AOML_Explorer,Ex0519W,129.097,9052005,2:19:07,24.573,-80.348,368.46,-9,1016.82,1014.48,25.84,26.01,36.222,1.17,82.59,31.6,1016.82,231.7,19,278,6.18,359.05,2,-9,9,-9,0.13,12.61,79.97,23.76,-9
AOML_Explorer,Ex0519W,129.098,9052005,2:21:40,24.564,-80.36,368.68,-9,1016.94,1014.48,25.81,26.01,36.231,1.2,82.28,31.6,1016.94,231.4,19,276,6.18,359.56,2,-9,9,-9,0.12,11.72,76.87,23.87,-9
AOML_Explorer,Ex0519W,129.1,9052005,2:24:13,24.556,-80.371,368.66,-9,1017,1014.74,25.81,26,36.23,1.18,82.5,31.6,1017,231.2,19,282,6.69,359.52,2,-9,9,-9,0.13,11.3,79.17,23.77,-9
AOML_Explorer,Ex0519W,129.102,9052005,2:26:46,24.547,-80.383,368.72,-9,1016.99,1014.76,25.81,25.95,36.224,1.2,82.18,31.6,1016.99,230.9,19.2,290,5.15,358.98,2,-9,9,-9,0.14,10.66,80.61,23.87,-9
AOML_Explorer,Ex0519W,129.104,9052005,2:29:19,24.539,-80.394,368.89,-9,1016.96,1014.75,25.78,25.95,36.219,1.2,81.25,31.6,1016.96,230.6,19.2,278,6.69,359.41,2,-9,9,-9,0.12,12.24,83.76,23.85,-9
AOML_Explorer,Ex0519W,129.105,9052005,2:31:52,24.53,-80.406,368.7,-9,1017.06,1014.49,25.76,25.94,36.223,1.19,82.71,31.6,1017.06,230.4,19.2,278,8.75,359.56,2,-9,9,-9,0.12,14.09,85.72,23.78,-9
AOML_Explorer,Ex0519W,129.107,9052005,2:34:25,24.521,-80.417,368.65,-9,1017.08,1014.76,25.75,25.94,36.234,1.2,81.96,31.61,1017.08,229.9,19.2,280,7.21,359.6,2,-9,9,-9,0.11,13.08,82.29,23.8,-9
AOML_Explorer,Ex0519W,129.109,9052005,2:36:58,24.513,-80.429,368.57,-9,1017.14,1014.74,25.75,25.94,36.243,1.19,81.06,31.6,1017.14,230.9,19.1,282,6.69,359.51,2,-9,9,-9,0.11,12.6,81.57,23.9,-9
AOML_Explorer,Ex0519W,129.111,9052005,2:39:31,24.504,-80.44,368.48,-9,1017.07,1014.51,25.75,25.95,36.247,1.18,81.58,31.6,1017.07,230.2,19.1,282,7.72,359.58,2,-9,9,-9,0.11,13.13,88.79,23.82,-9
AOML_Explorer,Ex0519W,129.113,9052005,2:42:04,24.495,-80.451,368.29,-9,1017.08,1014.77,25.75,25.93,36.247,1.19,82.5,31.6,1017.08,229.6,19,282,6.18,359.14,2,-9,9,-9,0.12,11.7,76.42,23.77,-9
AOML_Explorer,Ex0519W,129.114,9052005,2:44:37,24.486,-80.463,368.5,-9,1017.06,1014.5,25.75,25.97,36.226,1.18,82.44,31.6,1017.06,229.8,19,276,7.21,359.87,2,-9,9,-9,0.11,14.14,87.76,24,-9
AOML_Explorer,Ex0519W,129.116,9052005,2:47:10,24.478,-80.474,368.41,-9,1017.11,1014.49,25.74,26.04,36.24,1.18,82.8,31.6,1017.11,229.5,18.9,268,6.69,360.75,2,-9,9,-9,0.11,13.11,80.4,23.83,-9
AOML_Explorer,Ex0519W,129.118,9052005,2:49:43,24.469,-80.485,368.38,-9,1017.13,1014.77,25.8,26.05,36.242,1.17,81.82,31.59,1017.13,229.8,18.9,284,7.21,360.15,2,-9,9,-9,0.11,12.21,83.6,23.82,-9
AOML_Explorer,Ex0519W,129.12,9052005,2:52:16,24.46,-80.496,368.58,-9,1017.23,1014.76,25.83,26.09,36.236,1.15,82.59,31.59,1017.23,229.2,18.9,286,7.21,360.51,2,-9,9,-9,0.11,13.2,82.73,24.1,-9
AOML_Explorer,Ex0519W,129.121,9052005,2:54:49,24.451,-80.507,368.62,-9,1017.18,1014.78,25.86,26.13,36.231,1.16,81.91,31.59,1017.18,229.2,18.9,284,8.75,360.53,2,-9,9,-9,0.1,13.4,87.85,23.86,-9
AOML_Explorer,Ex0519W,129.123,9052005,2:57:22,24.443,-80.519,368.78,-9,1017.17,1014.79,25.89,26.1,36.227,1.19,81.86,31.59,1017.17,229.3,18.9,275,9.26,360,2,-9,9,-9,0.12,13.79,88.75,23.94,-9
AOML_Explorer,Ex0519W,129.125,9052005,2:59:55,24.434,-80.53,368.98,-9,1017.2,1014.47,25.9,26.1,36.233,1.15,82.61,31.59,1017.2,229.3,18.9,276,9.26,359.9,2,-9,9,-9,0.11,14.76,90.31,23.96,-9
AOML_Explorer,Ex0519W,129.138,9052005,3:19:07,24.386,-80.626,368.72,-9,1017.29,1015.04,25.94,26.15,36.215,1.19,82.31,31.64,1017.29,245.9,19,294,6.18,359.85,2,-9,9,-9,0.12,11.08,96.07,24,-9
AOML_Explorer,Ex0519W,129.14,9052005,3:21:40,24.38,-80.64,368.96,-9,1017.21,1014.75,25.95,26.15,36.217,1.15,81.59,31.63,1017.21,245.8,18.9,280,7.72,359.98,2,-9,9,-9,0.11,14.21,98.06,24,-9
AOML_Explorer,Ex0519W,129.142,9052005,3:24:13,24.375,-80.653,369.16,-9,1017.3,1015.07,25.94,26.16,36.224,1.17,82.06,31.63,1017.3,245.8,19,277,5.66,360.42,2,-9,9,-9,0.11,12.14,91.46,23.92,-9
AOML_Explorer,Ex0519W,129.144,9052005,3:26:46,24.369,-80.666,369.24,-9,1017.25,1015.04,25.95,26.17,36.227,1.16,81.62,31.64,1017.25,246,18.9,281,5.15,360.46,2,-9,9,-9,0.11,11.16,89.75,24.07,-9
AOML_Explorer,Ex0519W,129.145,9052005,3:29:19,24.364,-80.68,369.45,-9,1017.26,1015.08,25.95,26.17,36.23,1.16,82.46,31.64,1017.26,246.1,18.9,280,4.63,360.67,2,-9,9,-9,0.11,11.23,90.72,23.97,-9
AOML_Explorer,Ex0519W,129.147,9052005,3:31:52,24.358,-80.693,369.39,-9,1017.18,1014.74,25.96,26.17,36.233,1.19,83.19,31.63,1017.18,245.9,19,280,5.66,360.39,2,-9,9,-9,0.11,12.38,97.35,23.95,-9
AOML_Explorer,Ex0519W,129.149,9052005,3:34:25,24.353,-80.707,369.5,-9,1017.19,1014.75,25.96,26.16,36.231,1.18,81.87,31.63,1017.19,245.9,19,284,5.66,360.45,2,-9,9,-9,0.11,11.1,91.89,24.02,-9
AOML_Explorer,Ex0519W,129.151,9052005,3:36:58,24.347,-80.72,369.56,-9,1017.21,1014.77,25.96,26.16,36.229,1.17,82.13,31.63,1017.21,245.3,19.1,279,7.72,360.54,2,-9,9,-9,0.12,13.34,97.13,24.05,-9
AOML_Explorer,Ex0519W,129.152,9052005,3:39:31,24.341,-80.734,369.55,-9,1017.22,1014.76,25.96,26.17,36.225,1.18,82.15,31.63,1017.22,245.8,19,277,7.72,360.61,2,-9,9,-9,0.12,11.98,99.34,24.09,-9
AOML_Explorer,Ex0519W,129.154,9052005,3:42:04,24.336,-80.747,369.53,-9,1017.2,1015.06,25.96,26.16,36.227,1.17,81.47,31.63,1017.2,246.1,19,281,5.66,360.53,2,-9,9,-9,0.12,11.62,90.1,23.97,-9
AOML_Explorer,Ex0519W,129.156,9052005,3:44:37,24.331,-80.761,369.52,-9,1017.17,1014.73,25.96,26.15,36.23,1.18,82.4,31.63,1017.17,246.4,18.9,284,6.18,360.34,2,-9,9,-9,0.13,13.06,97.52,23.98,-9
AOML_Explorer,Ex0519W,129.158,9052005,3:47:10,24.325,-80.774,369.44,-9,1017.17,1014.78,25.95,26.14,36.231,1.18,82.41,31.63,1017.17,246,18.9,276,6.18,360.28,2,-9,9,-9,0.12,12.37,97.93,24.14,-9
AOML_Explorer,Ex0519W,129.16,9052005,3:49:43,24.32,-80.787,369.37,-9,1017.17,1014.76,25.95,26.13,36.234,1.17,82.16,31.63,1017.17,245.9,18.8,281,7.21,360.1,2,-9,9,-9,0.13,12.04,97.11,24.11,-9
AOML_Explorer,Ex0519W,129.161,9052005,3:52:16,24.314,-80.801,369.17,-9,1017.19,1014.77,25.94,26.13,36.232,1.18,82.2,31.63,1017.19,245.9,18.8,282,7.21,359.95,2,-9,9,-9,0.12,11.62,101.43,24.16,-9
AOML_Explorer,Ex0519W,129.163,9052005,3:54:49,24.309,-80.814,369.32,-9,1017.15,1014.76,25.93,26.12,36.237,1.18,82.66,31.63,1017.15,246.9,18.8,272,6.69,360.15,2,-9,9,-9,0.13,11.66,100.59,24.16,-9
AOML_Explorer,Ex0519W,129.165,9052005,3:57:22,24.304,-80.828,369.12,-9,1017.24,1014.78,25.92,26.11,36.243,1.17,82.29,31.62,1017.24,246.8,18.8,273,5.15,359.93,2,-9,9,-9,0.11,11.6,93.86,24.14,-9
AOML_Explorer,Ex0519W,129.167,9052005,3:59:55,24.298,-80.841,369.18,-9,1017.21,1014.76,25.92,26.1,36.244,1.18,82.43,31.62,1017.21,246.9,18.7,287,6.18,359.89,2,-9,9,-9,0.11,11.46,98.57,24.06,-9
AOML_Explorer,Ex0519W,129.18,9052005,4:19:07,24.259,-80.94,370.64,-9,1017.07,1014.77,25.87,26.06,36.254,1.17,83.02,31.68,1017.07,247,18.2,285,7.72,361.43,2,-9,9,-9,0.12,12.42,101.78,24.19,-9
AOML_Explorer,Ex0519W,129.182,9052005,4:21:40,24.254,-80.953,370.91,-9,1017.04,1014.77,25.87,26.06,36.25,1.16,81.17,31.68,1017.04,246.3,18.3,279,6.18,361.62,2,-9,9,-9,0.11,12.09,97.31,24.2,-9
AOML_Explorer,Ex0519W,129.183,9052005,4:24:13,24.249,-80.966,370.98,-9,1017.04,1014.76,25.87,26.05,36.25,1.2,82.27,31.68,1017.04,246.5,18.3,291,5.66,361.74,2,-9,9,-9,0.12,10.34,92.9,24.23,-9
AOML_Explorer,Ex0519W,129.185,9052005,4:26:46,24.244,-80.979,371.15,-9,1017.01,1014.5,25.87,26.05,36.248,1.17,82.14,31.68,1017.01,246.8,18.3,272,7.21,361.89,2,-9,9,-9,0.13,12.59,100.63,24.24,-9
AOML_Explorer,Ex0519W,129.187,9052005,4:29:19,24.239,-80.992,371.11,-9,1017.08,1014.76,25.86,26.05,36.248,1.19,82.48,31.68,1017.08,247.2,18.3,287,5.66,361.89,2,-9,9,-9,0.12,11.1,90.14,24.2,-9
AOML_Explorer,Ex0519W,129.189,9052005,4:31:52,24.234,-81.005,371.15,-9,1017.05,1014.78,25.86,26.05,36.249,1.16,82,31.68,1017.05,246.3,18.3,280,6.18,361.91,2,-9,9,-9,0.11,12.31,96.26,24.15,-9
AOML_Explorer,Ex0519W,129.191,9052005,4:34:25,24.228,-81.018,371.1,-9,1017.01,1014.5,25.86,26.05,36.25,1.19,82.21,31.69,1017.01,246.8,18.2,279,7.72,361.82,2,-9,9,-9,0.12,12.9,102.57,24.14,-9
AOML_Explorer,Ex0519W,129.192,9052005,4:36:58,24.223,-81.031,370.99,-9,1017.03,1014.75,25.86,26.04,36.249,1.19,82.37,31.69,1017.03,246.2,18.2,273,6.69,361.66,2,-9,9,-9,0.12,11.16,97.93,24.29,-9
AOML_Explorer,Ex0519W,129.194,9052005,4:39:31,24.218,-81.044,371.08,-9,1017.01,1014.77,25.86,26.04,36.247,1.18,81.88,31.69,1017.01,246.6,18.1,286,6.69,361.76,2,-9,9,-9,0.12,11.71,98.49,24.21,-9
AOML_Explorer,Ex0519W,129.196,9052005,4:42:04,24.213,-81.057,371.04,-9,1016.98,1014.49,25.86,26.03,36.249,1.2,82.51,31.69,1016.98,246.7,18.1,278,5.66,361.66,2,-9,9,-9,0.13,10.7,101.23,24.3,-9
AOML_Explorer,Ex0519W,129.198,9052005,4:44:37,24.208,-81.07,370.92,-9,1016.93,1014.5,25.85,26.01,36.254,1.2,82.86,31.69,1016.93,246.6,18.1,287,6.69,361.32,2,-9,9,-9,0.13,11.92,97.15,24.25,-9
AOML_Explorer,Ex0519W,129.199,9052005,4:47:10,24.203,-81.083,370.83,-9,1016.92,1014.5,25.84,25.99,36.257,1.17,82.55,31.69,1016.92,246.4,18.2,281,7.72,361.04,2,-9,9,-9,0.14,13.1,98.67,24.18,-9
AOML_Explorer,Ex0519W,129.201,9052005,4:49:43,24.198,-81.096,370.86,-9,1016.88,1014.51,25.82,25.98,36.263,1.16,82.35,31.69,1016.88,247.5,18.2,272,6.18,361.14,2,-9,9,-9,0.14,12.36,96.76,24.3,-9
AOML_Explorer,Ex0519W,129.203,9052005,4:52:16,24.193,-81.109,370.67,-9,1016.84,1014.48,25.8,25.97,36.265,1.18,81.61,31.69,1016.84,246.9,18.1,257,4.63,361.08,2,-9,9,-9,0.13,10.37,89.88,24.26,-9
AOML_Explorer,Ex0519W,129.205,9052005,4:54:49,24.187,-81.122,370.59,-9,1016.84,1014.49,25.8,25.95,36.264,1.17,82.29,31.69,1016.84,246.3,18.2,283,6.69,360.95,2,-9,9,-9,0.15,11.35,100.23,24.22,-9
AOML_Explorer,Ex0519W,129.207,9052005,4:57:22,24.182,-81.135,370.62,-9,1016.84,1014.49,25.78,25.97,36.262,1.18,81.61,31.69,1016.84,247.2,18.3,278,6.18,361.45,2,-9,9,-9,0.14,10.5,101.44,24.32,-9
AOML_Explorer,Ex0519W,129.208,9052005,4:59:55,24.177,-81.148,370.44,-9,1016.79,1014.5,25.79,25.97,36.262,1.17,82.14,31.69,1016.79,246.3,18.2,287,7.21,361.02,2,-9,9,-9,0.14,11.73,99.99,24.22,-9
AOML_Explorer,Ex0519W,129.222,9052005,5:19:07,24.139,-81.246,370.17,-9,1016.59,1014.23,25.78,25.98,36.257,1.16,82.96,31.76,1016.59,247.4,18.2,283,6.69,361.08,2,-9,9,-9,0.16,12.21,97.89,24.37,-9
AOML_Explorer,Ex0519W,129.223,9052005,5:21:40,24.134,-81.259,370.24,-9,1016.56,1014.51,25.78,25.98,36.259,1.16,82.38,31.76,1016.56,247,18.3,288,5.15,361.04,2,-9,9,-9,0.16,10.79,90.71,24.26,-9
AOML_Explorer,Ex0519W,129.225,9052005,5:24:13,24.128,-81.272,370.11,-9,1016.61,1014.21,25.8,26.03,36.245,1.19,82.7,31.76,1016.61,246.8,18.3,288,6.18,361.41,2,-9,9,-9,0.15,10.84,96.28,24.29,-9
AOML_Explorer,Ex0519W,129.227,9052005,5:26:46,24.123,-81.285,370,-9,1016.52,1014.23,25.82,26.05,36.248,1.18,82.09,31.76,1016.52,246.4,18.4,277,6.69,361.24,2,-9,9,-9,0.13,12.47,96.15,24.3,-9
AOML_Explorer,Ex0519W,129.229,9052005,5:29:19,24.118,-81.298,369.81,-9,1016.57,1014.21,25.85,26.06,36.24,1.14,82.84,31.76,1016.57,247,18.4,283,6.69,360.69,2,-9,9,-9,0.13,12.51,97.04,24.3,-9
AOML_Explorer,Ex0519W,129.23,9052005,5:31:52,24.113,-81.311,369.58,-9,1016.54,1014.19,25.85,26.08,36.239,1.16,82.1,31.76,1016.54,246.7,18.4,280,4.63,360.67,2,-9,9,-9,0.13,11.81,93.22,24.3,-9
AOML_Explorer,Ex0519W,129.232,9052005,5:34:25,24.108,-81.324,369.29,-9,1016.5,1014.23,25.87,26.09,36.239,1.15,82.3,31.76,1016.5,246.8,18.5,272,5.15,360.26,2,-9,9,-9,0.13,10.58,90.17,24.32,-9
AOML_Explorer,Ex0519W,129.234,9052005,5:36:58,24.102,-81.337,369.22,-9,1016.5,1014.23,25.89,26.08,36.244,1.14,81.99,31.76,1016.5,246.5,18.5,305,6.18,359.83,2,-9,9,-9,0.14,11.23,100.01,24.48,-9
AOML_Explorer,Ex0519W,129.236,9052005,5:39:31,24.097,-81.351,369.01,-9,1016.49,1014.22,25.89,26.06,36.242,1.14,82.06,31.76,1016.49,246.3,18.4,293,6.18,359.37,2,-9,9,-9,0.14,11.2,96.18,24.25,-9
AOML_Explorer,Ex0519W,129.238,9052005,5:42:04,24.092,-81.364,368.98,-9,1016.49,1013.93,25.89,26.07,36.24,1.17,82,31.76,1016.49,246.8,18.4,298,6.18,359.47,2,-9,9,-9,0.13,11.41,97.4,24.36,-9
AOML_Explorer,Ex0519W,129.239,9052005,5:44:37,24.087,-81.377,368.86,-9,1016.52,1014.23,25.88,26.07,36.238,1.15,82.61,31.76,1016.52,246.1,18.5,293,5.15,359.51,2,-9,9,-9,0.15,10.66,94.19,24.33,-9
AOML_Explorer,Ex0519W,129.241,9052005,5:47:10,24.082,-81.39,368.82,-9,1016.5,1014.22,25.88,26.08,36.239,1.16,82.27,31.75,1016.5,247.1,18.4,274,5.15,359.57,2,-9,9,-9,0.14,10.76,90.88,24.26,-9
AOML_Explorer,Ex0519W,129.243,9052005,5:49:43,24.076,-81.403,368.82,-9,1016.46,1014.2,25.88,26.07,36.239,1.16,81.9,31.75,1016.46,245.9,18.5,300,5.15,359.38,2,-9,9,-9,0.15,11.2,94.59,24.27,-9
AOML_Explorer,Ex0519W,129.245,9052005,5:52:16,24.071,-81.416,368.72,-9,1016.37,1013.96,25.89,26.05,36.24,1.17,80.2,31.75,1016.37,246.6,18.5,281,5.66,358.97,2,-9,9,-9,0.14,10.91,98.9,24.46,-9
AOML_Explorer,Ex0519W,129.246,9052005,5:54:49,24.066,-81.429,368.82,-9,1016.38,1014.23,25.88,26.04,36.242,1.16,81.77,31.75,1016.38,246.2,18.6,283,4.63,359.04,2,-9,9,-9,0.13,9.1,88.35,24.35,-9
AOML_Explorer,Ex0519W,129.248,9052005,5:57:22,24.061,-81.443,368.78,-9,1016.38,1014.02,25.86,26.03,36.246,1.15,82.53,31.75,1016.38,246.7,18.6,285,5.66,359.03,2,-9,9,-9,0.14,10.8,98.28,24.46,-9
AOML_Explorer,Ex0519W,129.25,9052005,5:59:55,24.056,-81.456,368.86,-9,1016.32,1013.95,25.85,26.03,36.239,1.14,81.58,31.75,1016.32,246.5,18.6,290,6.18,359.39,2,-9,9,-9,0.15,11.46,99.26,24.34,-9
AOML_Explorer,Ex0519W,129.263,9052005,6:19:07,24.016,-81.556,369.32,-9,1016.07,1013.68,25.91,26.12,36.233,1.16,82.75,31.8,1016.07,246.6,18.7,288,7.21,359.94,2,-9,9,-9,0.14,11.8,95.25,24.42,-9
AOML_Explorer,Ex0519W,129.265,9052005,6:21:40,24.011,-81.569,369.65,-9,1015.92,1013.71,25.91,26.14,36.23,1.16,81.82,31.8,1015.92,246.4,18.7,291,7.21,360.5,2,-9,9,-9,0.14,12.59,95.24,24.36,-9
AOML_Explorer,Ex0519W,129.267,9052005,6:24:13,24.006,-81.582,369.91,-9,1015.98,1013.72,25.93,26.12,36.232,1.15,81.06,31.8,1015.98,246.7,18.7,291,6.18,360.29,2,-9,9,-9,0.16,11.82,96.46,24.36,-9